Theta_e
311 312 312 312 311 310 309 309 309 309 308 308 308 308 308 307 308 307 306 306 306 307 307 308 308 308 306 306 305 304 304 305 305 307 309 310 310 309 310 311 312 313 312 311 312 312 312 311 309 307 305 304 305 305 304 304 303 303 303 303 303 304 305 305 308 309 307 305 306 307 306 307 308 308 309 310 310 310 310 310 310 310 309 308 308
311 312 312 312 311 310 309 309 309 308 308 308 308 308 307 307 307 307 306 306 306 307 307 308 308 307 306 305 304 303 303 304 305 306 307 309 310 310 309 310 311 312 312 311 311 311 312 312 312 309 306 304 304 304 304 303 303 303 303 303 303 304 305 306 307 309 309 307 307 308 307 308 309 309 310 310 311 311 310 310 310 311 310 309 308
311 311 312 311 311 310 309 309 308 308 308 307 307 307 307 307 307 306 306 306 306 306 306 307 308 307 306 305 303 302 303 304 305 304 306 308 310 310 309 310 310 311 312 311 311 311 311 311 312 312 310 307 306 305 304 303 303 303 303 303 304 305 306 307 307 308 308 308 308 309 308 309 309 310 311 311 311 310 310 311 311 311 310 309 309
311 311 311 310 310 309 309 308 307 307 307 307 307 307 307 307 307 306 306 306 306 306 306 307 307 306 306 304 302 301 303 304 305 305 306 308 310 310 310 309 310 310 311 311 310 310 310 310 311 311 311 311 309 307 305 303 303 303 304 304 305 305 306 308 308 309 310 310 310 309 309 309 310 311 311 311 311 311 310 310 310 310 310 309 310
311 310 310 310 309 309 308 308 307 307 307 307 306 307 307 307 307 306 306 306 306 306 306 307 307 306 305 304 301 301 302 304 305 306 306 308 309 310 310 309 309 309 310 310 310 309 309 309 310 310 311 311 311 310 308 306 305 305 305 306 306 306 307 308 309 310 311 312 311 311 310 310 310 311 311 312 312 311 310 310 310 310 310 310 310
310 310 309 309 308 308 307 307 307 307 306 306 306 307 307 307 306 306 305 305 305 305 305 306 306 306 305 303 301 300 302 304 305 306 307 308 310 310 309 309 309 309 309 309 309 309 309 309 309 310 310 310 311 312 312 311 310 310 310 312 311 309 308 310 311 312 312 312 312 313 312 312 312 312 312 312 313 312 311 311 311 310 310 311 311
310 309 308 308 307 307 307 306 306 306 306 306 306 306 307 307 306 306 305 305 305 305 305 306 306 305 304 303 300 300 302 303 305 307 308 309 310 310 309 309 309 308 308 308 309 309 309 309 309 309 309 310 310 311 312 312 313 313 314 315 315 313 312 312 313 313 313 313 314 314 314 313 313 314 313 313 313 312 312 312 312 311 310 311 312
309 309 308 307 306 306 306 306 306 305 305 305 306 306 306 307 306 305 305 305 305 305 305 305 306 305 304 302 300 301 302 303 304 306 308 309 310 310 309 309 308 308 308 308 308 308 309 308 309 309 310 310 310 310 310 311 311 311 311 313 315 314 313 313 313 313 312 312 313 313 314 314 314 314 314 314 314 313 312 312 313 312 309 309 311
308 308 308 307 306 306 305 305 305 304 304 305 305 306 306 306 306 305 305 305 305 304 304 305 305 305 304 301 300 300 302 303 304 305 307 309 310 309 309 308 308 307 307 307 307 307 307 307 308 309 310 310 310 310 310 309 309 308 306 306 310 313 312 311 311 311 310 310 311 312 312 313 313 314 315 315 315 314 312 312 313 313 311 310 311
308 307 307 306 305 305 305 305 304 304 304 304 305 305 306 306 306 306 305 304 304 304 304 304 305 305 304 301 299 300 301 303 304 306 307 308 309 309 308 306 306 306 306 306 306 306 306 307 308 310 310 310 310 309 308 308 309 308 306 304 306 309 310 309 309 309 308 308 308 308 309 310 311 312 313 314 315 314 313 312 313 313 311 311 312
308 307 307 306 305 305 304 304 304 303 303 304 305 305 305 306 306 305 305 304 304 304 304 304 304 305 303 301 299 300 301 303 305 306 307 308 308 308 308 306 305 304 304 304 304 305 306 306 307 309 310 310 310 309 306 305 306 307 307 306 306 307 308 308 308 308 307 306 306 306 307 307 308 309 311 312 313 314 314 313 312 311 310 310 312
307 307 306 305 304 304 304 303 303 303 303 304 304 305 305 305 305 305 305 304 304 303 303 304 304 304 303 301 299 299 301 303 305 306 307 308 308 308 308 306 304 302 302 302 302 303 304 304 306 307 309 310 311 310 309 306 305 305 307 308 308 308 308 308 308 308 308 308 308 306 306 306 307 308 310 311 312 313 314 313 313 311 309 310 311
307 306 305 305 304 304 303 303 303 302 303 303 304 305 305 305 305 305 305 304 304 304 303 303 303 304 303 301 298 299 300 302 304 306 306 307 308 307 307 307 305 303 301 301 301 301 302 302 304 306 308 311 312 313 312 311 308 307 307 307 308 309 309 309 309 309 309 310 309 307 307 307 307 308 309 311 312 313 313 313 313 312 310 310 310
306 306 305 304 304 304 303 303 302 302 302 303 304 304 304 304 304 304 304 304 304 303 303 302 302 303 303 301 298 298 299 301 304 305 306 307 307 307 307 306 306 304 302 301 301 301 301 300 301 304 306 309 311 312 313 313 312 310 309 310 310 310 310 310 310 310 310 310 309 308 307 307 307 308 309 310 311 312 312 313 313 312 311 310 311
306 306 305 304 304 303 303 303 302 302 302 303 303 303 304 304 304 304 304 303 303 303 303 302 301 301 302 302 299 297 297 300 302 304 306 306 307 307 306 306 306 305 303 301 300 300 301 300 300 301 304 306 308 311 312 312 312 312 312 311 311 311 310 310 310 310 310 310 309 308 308 308 308 308 308 309 310 311 311 312 312 313 312 311 311
306 305 305 304 304 304 303 303 302 302 302 302 303 303 303 303 303 303 303 303 302 302 302 302 301 300 300 301 300 297 296 299 301 303 304 306 306 306 306 305 305 304 303 302 300 299 299 300 301 301 302 304 306 308 310 311 311 311 311 310 310 310 310 309 310 311 310 310 309 308 308 308 308 308 307 308 309 310 310 311 312 313 313 312 311
306 305 305 304 304 303 303 303 302 302 302 302 303 302 302 302 302 302 302 302 302 302 302 302 301 300 299 299 300 297 295 296 299 301 302 304 304 304 305 305 304 304 303 302 300 299 298 298 299 300 301 302 304 306 307 308 308 308 309 309 308 308 309 309 310 310 309 310 310 309 308 308 308 308 309 309 309 308 309 311 311 313 313 311 310
305 305 304 304 303 303 302 302 302 302 302 302 302 302 302 302 302 302 301 301 301 301 301 301 301 301 299 297 298 297 295 294 297 299 301 302 302 302 303 304 304 303 302 301 300 299 298 298 298 299 300 300 302 304 305 305 305 305 306 306 307 307 308 309 310 309 307 308 309 309 308 308 308 308 310 311 310 309 310 310 311 312 312 311 310
305 304 304 304 303 303 302 302 302 302 302 302 301 301 301 300 301 301 301 301 300 300 300 300 300 300 300 298 297 296 295 294 294 297 299 300 300 300 301 302 302 302 302 301 300 299 298 298 298 298 299 300 301 302 303 303 303 303 304 305 305 307 308 309 309 309 308 307 308 308 307 307 308 308 309 310 311 311 310 309 310 311 312 311 311
304 304 304 303 303 303 302 302 302 301 301 301 301 301 300 300 300 300 300 300 300 299 299 299 298 298 299 299 297 295 295 294 293 294 296 297 299 299 299 300 301 301 300 300 299 299 298 298 299 299 299 299 300 300 301 302 302 303 304 304 305 306 308 308 308 308 307 307 307 307 307 307 307 308 309 310 311 311 310 309 309 310 310 310 310
304 303 303 303 302 302 302 302 301 301 301 301 301 301 300 299 299 299 299 299 298 298 298 297 297 296 297 297 297 296 294 294 293 293 294 295 296 297 298 299 299 300 299 298 298 298 298 298 298 299 299 299 299 300 300 301 302 302 303 304 305 306 307 307 307 307 307 306 306 306 306 306 307 307 308 309 309 310 311 310 309 309 309 309 310
303 303 303 302 302 302 302 301 301 301 301 301 301 301 300 300 299 299 298 298 298 298 297 296 296 295 294 295 295 295 294 293 293 293 293 293 294 295 296 297 298 298 298 297 297 297 297 297 298 299 300 299 299 300 300 300 301 302 302 303 304 305 305 306 306 306 306 306 306 306 305 306 306 306 307 308 308 309 311 311 309 308 308 308 309
303 303 302 302 302 301 301 301 301 301 301 301 301 301 300 300 300 299 298 298 298 297 297 296 295 295 294 293 293 293 293 292 292 293 292 292 293 293 294 295 296 297 297 296 295 295 296 297 297 299 299 300 299 299 299 300 300 301 302 303 303 303 303 304 305 305 305 305 305 305 305 305 305 305 306 307 307 308 310 311 310 308 308 308 307
303 302 302 301 301 301 301 301 301 301 301 301 301 301 300 300 299 299 298 298 298 297 296 296 296 295 294 292 292 291 291 290 290 292 293 292 292 292 293 293 294 295 295 295 294 294 295 296 296 297 298 299 299 299 299 299 299 300 301 302 302 303 303 303 303 303 304 304 304 304 304 304 304 304 305 306 306 307 309 310 310 309 309 308 308
303 302 301 301 301 301 301 301 301 301 301 301 301 301 300 299 299 299 298 298 298 297 296 296 295 294 293 292 291 289 288 287 288 290 292 292 291 292 292 292 293 293 294 295 295 294 294 294 295 295 296 297 297 297 297 298 298 299 299 300 300 301 301 302 303 302 302 303 303 303 304 304 303 304 305 305 306 306 307 308 309 309 310 310 309
302 301 301 301 301 301 301 301 301 301 300 300 300 300 300 300 300 299 299 298 297 297 297 296 296 294 293 292 291 288 286 286 287 288 290 291 290 291 291 292 292 293 293 294 294 294 293 293 294 294 294 295 295 295 295 296 296 297 298 298 298 299 300 301 302 302 302 302 302 302 303 303 303 303 304 305 305 305 305 306 307 307 308 310 310
302 301 301 301 301 301 301 301 301 301 300 299 298 298 299 299 300 300 299 298 297 296 296 296 296 295 293 292 290 288 286 286 287 287 288 289 289 290 290 291 292 292 293 294 294 294 293 293 293 293 293 294 294 294 294 294 294 294 295 296 296 297 298 299 300 301 301 302 301 301 302 302 302 302 303 304 304 304 304 305 306 305 304 306 309
302 302 301 301 301 301 300 300 301 301 299 297 296 296 295 296 297 297 297 297 297 296 294 293 293 294 294 292 290 288 286 285 286 287 287 288 289 289 290 291 291 292 293 293 294 293 293 292 292 292 292 292 292 293 293 293 293 293 293 294 294 295 296 297 298 299 300 301 301 301 301 302 302 301 302 302 303 303 303 304 305 306 304 303 305
302 302 301 301 301 300 300 301 302 300 297 295 294 294 293 294 295 295 294 294 295 294 293 291 289 290 291 291 289 287 285 285 286 287 287 288 288 289 290 290 291 292 292 293 293 292 292 292 291 291 291 291 291 292 292 292 292 292 292 292 292 293 294 295 296 298 299 300 300 301 301 301 301 301 301 301 302 302 302 303 303 305 305 305 304
302 301 301 301 300 300 300 302 302 299 296 293 292 291 290 291 292 292 291 291 291 291 290 289 288 287 287 286 286 286 285 285 286 287 288 288 289 289 290 290 291 292 292 292 292 292 291 291 291 291 291 290 291 291 291 291 291 291 291 291 291 292 292 293 294 296 297 298 299 299 300 301 301 300 301 301 301 301 301 301 302 303 304 305 305
302 301 302 301 300 300 301 302 300 298 295 292 290 289 288 288 289 289 288 288 288 288 288 288 288 287 286 286 285 285 285 286 287 288 288 289 289 289 290 290 291 291 291 291 291 291 291 291 291 291 290 290 290 290 290 290 290 290 290 290 290 290 291 292 293 294 295 296 297 297 298 300 300 300 300 300 300 300 300 300 300 301 302 303 304
302 302 302 301 300 301 301 300 298 297 294 292 290 289 288 287 287 287 288 288 288 288 288 288 287 287 287 286 285 285 286 287 288 289 289 289 289 289 289 290 290 291 291 291 291 291 291 290 290 290 290 290 290 289 289 289 289 289 289 289 289 289 290 291 291 292 293 294 295 296 297 298 298 299 300 299 299 299 299 299 299 299 300 301 302
303 303 302 300 300 301 300 298 297 296 294 293 291 290 289 288 287 287 287 287 288 288 288 288 288 287 287 286 286 286 286 287 289 290 290 290 290 290 290 290 290 290 290 291 290 290 290 290 290 290 290 289 289 289 289 288 289 289 288 288 288 288 289 290 290 291 292 293 293 294 296 296 296 298 299 299 298 298 298 298 298 298 299 299 300
304 304 302 300 300 301 300 298 297 296 295 294 293 292 291 290 289 287 287 287 287 287 288 288 288 287 287 287 287 287 287 288 290 290 291 291 292 292 291 291 290 290 290 290 290 290 290 290 290 289 289 289 289 289 288 288 288 288 288 287 287 287 288 289 289 290 290 291 292 293 294 294 295 296 297 297 298 298 298 297 297 297 297 298 299
305 304 302 300 301 301 300 299 299 298 296 296 295 294 293 291 290 289 289 290 289 289 288 287 287 288 288 287 288 288 289 289 290 291 291 292 292 292 292 291 291 290 290 290 290 290 289 289 289 289 289 289 289 288 288 288 287 288 288 287 286 287 287 288 288 289 289 290 290 291 292 293 294 294 295 296 296 297 297 297 296 296 297 297 297
306 304 302 301 302 302 301 300 300 299 298 297 296 295 294 292 292 292 292 292 292 291 289 288 288 288 288 288 289 290 290 291 291 291 291 292 292 292 292 291 290 290 290 290 289 289 289 289 289 288 288 288 288 288 288 287 287 287 287 287 286 286 286 287 288 288 288 289 289 290 290 291 292 293 294 295 295 295 295 296 296 296 296 296 296
306 304 302 302 302 303 302 301 301 300 299 299 298 296 295 293 293 294 295 294 294 293 291 289 288 288 288 289 290 291 292 292 292 292 292 292 292 292 292 291 290 290 290 289 289 289 288 288 288 288 288 287 287 287 288 287 286 286 286 286 286 285 285 286 287 287 288 288 288 289 289 290 290 291 292 293 294 294 294 295 295 296 296 295 295
307 305 303 303 303 303 302 301 301 301 300 299 299 297 296 295 295 296 297 296 294 293 291 289 289 289 289 290 292 293 293 293 293 293 293 293 292 292 291 291 290 290 289 289 289 288 288 288 287 287 287 287 287 287 287 287 286 286 286 286 285 285 285 285 286 287 287 287 287 288 288 288 289 290 291 292 293 293 293 294 294 295 295 294 293
307 306 304 303 304 304 303 302 302 301 300 300 300 298 297 296 296 298 298 296 295 294 292 291 291 292 291 291 292 293 294 294 294 294 293 293 292 292 291 291 290 290 289 289 288 288 287 287 287 287 286 286 286 286 286 286 286 285 285 285 285 285 284 285 285 286 286 286 287 287 287 287 288 289 289 291 292 292 292 293 293 294 294 294 292
308 306 304 303 304 304 304 303 302 301 300 300 300 299 298 297 298 298 298 297 296 295 294 293 294 294 293 291 292 293 294 294 294 293 293 293 292 292 291 291 290 290 289 288 288 287 287 286 286 286 286 285 285 285 285 285 285 285 284 284 284 284 284 284 285 285 285 286 286 287 287 287 287 288 289 290 291 291 292 292 292 293 293 293 291
308 306 304 303 304 305 304 303 302 301 300 300 300 299 298 298 298 298 298 297 297 296 296 295 295 295 294 292 292 294 295 294 293 293 293 292 292 291 291 291 290 290 289 288 288 287 286 286 286 285 285 285 284 284 284 284 284 284 283 283 283 283 283 283 284 284 285 286 286 287 287 287 286 287 288 289 290 291 291 291 291 291 292 292 291
308 306 304 303 304 305 305 304 302 301 300 300 299 299 298 298 298 298 298 298 297 297 297 296 296 295 294 292 292 294 294 294 293 293 292 292 291 291 291 290 290 289 289 288 287 287 286 286 285 285 284 284 284 283 283 283 283 283 283 282 281 281 281 282 283 284 284 285 286 286 287 286 286 286 287 288 289 289 290 291 291 290 291 292 291
308 307 304 303 304 305 305 304 303 302 301 300 299 299 298 298 298 298 298 298 297 297 297 296 295 295 293 292 292 294 294 293 293 293 292 292 291 291 290 290 290 289 288 287 287 286 286 286 285 285 285 285 284 283 283 282 282 282 282 281 280 280 281 282 283 283 284 285 286 286 287 286 285 286 287 287 288 289 289 290 290 290 290 290 290
308 307 304 303 304 305 305 305 304 302 301 300 300 299 298 297 297 298 298 297 297 297 296 296 295 295 292 291 292 294 294 293 293 293 292 292 291 291 290 290 289 288 288 287 287 286 286 286 286 285 285 285 284 284 283 282 281 280 280 280 280 280 280 281 283 283 284 285 286 286 286 286 285 285 286 287 287 288 289 289 289 289 289 289 290
308 306 305 304 304 304 305 305 304 303 301 301 300 299 298 297 297 297 297 297 297 296 296 296 295 294 291 290 291 293 294 293 293 292 292 292 291 290 290 289 288 288 288 287 286 286 286 286 286 285 285 285 284 284 283 283 281 280 280 280 280 280 280 281 283 284 285 285 286 286 286 286 285 285 286 286 286 287 288 288 289 289 289 289 289
308 307 305 305 304 304 305 305 304 303 302 301 300 299 298 298 297 297 297 297 296 296 296 295 294 293 291 289 291 293 294 293 293 292 292 292 291 290 290 289 289 289 288 287 287 286 286 286 285 285 285 284 284 283 283 282 281 280 280 280 280 280 280 281 283 284 285 285 286 286 286 285 284 284 285 286 286 286 287 288 288 288 288 288 288
309 308 306 305 305 304 305 305 304 303 301 300 300 299 299 298 297 297 297 296 296 296 295 294 294 292 290 289 290 293 293 293 292 292 292 291 291 290 290 289 289 289 288 288 287 286 286 286 285 284 284 283 283 282 282 282 281 280 280 280 280 280 280 281 283 284 285 285 285 285 285 285 284 283 284 286 286 286 286 287 287 288 288 288 288
309 308 307 306 305 304 304 304 304 302 301 301 300 300 299 298 298 297 296 296 296 295 295 294 293 292 291 290 291 293 293 292 292 292 292 291 290 290 289 289 289 289 288 287 286 286 286 285 285 284 283 283 282 282 282 281 280 280 280 280 280 280 280 281 282 284 285 285 285 285 285 285 284 283 284 285 285 285 285 286 286 287 287 287 287
309 309 308 306 304 303 303 304 303 302 301 301 301 300 299 299 298 297 296 296 296 295 295 294 294 293 292 292 292 293 293 292 292 292 292 291 290 290 289 289 289 289 288 287 286 285 285 284 284 284 283 283 282 282 281 280 280 280 280 280 280 280 280 280 282 283 284 284 285 285 285 284 283 283 283 284 285 285 285 285 286 286 286 286 286
308 308 307 305 303 303 303 304 303 302 302 301 301 301 300 299 298 298 297 296 296 295 295 295 294 294 293 293 293 293 293 292 292 292 291 291 290 290 290 289 289 288 288 287 286 285 284 284 283 283 282 282 282 281 280 280 280 280 280 280 280 280 280 280 282 283 283 284 284 284 284 284 283 283 282 283 284 285 284 285 285 285 285 285 286
309 308 306 304 303 303 304 303 303 302 302 301 301 301 301 300 299 298 297 296 295 295 295 295 295 295 294 293 293 293 292 292 291 291 291 291 290 290 289 289 289 288 288 287 286 285 284 284 283 283 282 282 281 281 280 280 280 280 280 280 280 280 280 280 282 282 283 283 284 284 284 283 283 283 282 282 283 284 284 284 285 285 285 284 284
Wind_Speed
8 8 8 9 9 10 11 12 13 13 14 14 14 14 15 15 16 16 16 16 17 18 19 19 20 23 25 26 26 26 25 23 23 24 24 24 26 27 28 28 29 28 29 31 31 30 29 29 29 29 28 27 27 28 28 27 27 28 29 27 21 16 14 9 5 2 1 2 3 4 6 7 6 6 5 6 10 10 7 8 9 10 11 16 18
8 8 8 8 9 10 11 12 13 13 14 15 15 14 15 15 16 16 16 16 17 18 19 18 21 24 26 26 26 26 26 24 24 24 24 24 24 26 27 27 28 28 28 29 30 31 30 28 26 25 26 26 25 24 24 24 26 26 24 22 18 13 10 6 3 2 1 0 2 4 6 6 8 8 5 7 11 11 8 7 7 8 8 12 17
7 8 8 9 9 9 10 12 12 13 14 15 15 15 15 15 16 16 16 16 17 18 18 19 22 25 25 26 27 28 28 27 25 25 24 23 23 24 25 25 26 26 27 27 29 30 31 30 27 24 21 22 22 21 20 19 19 17 14 13 10 5 2 2 2 1 1 1 1 2 5 8 8 9 7 9 12 11 9 7 6 7 8 9 16
7 7 8 9 9 9 10 11 12 13 14 14 15 15 15 15 16 16 16 16 17 17 17 19 23 24 23 25 27 28 30 29 27 26 25 23 22 22 23 22 23 24 25 26 27 29 30 30 29 26 22 20 19 18 16 14 12 9 6 4 2 1 3 5 6 4 1 1 1 2 3 6 7 7 7 10 12 11 9 7 6 7 9 9 16
6 7 8 8 9 10 10 11 12 13 14 14 15 15 15 16 15 15 16 17 18 17 17 19 22 23 22 24 27 29 30 30 29 28 26 23 21 21 21 20 20 21 23 24 25 26 28 28 28 28 26 23 19 14 11 9 7 5 3 4 5 6 8 9 9 5 4 5 3 3 5 6 6 6 7 9 12 10 8 10 13 11 11 9 13
6 7 7 8 9 9 10 11 12 13 13 14 14 15 15 15 15 16 16 17 17 17 16 19 22 22 21 23 28 30 29 29 29 29 27 24 22 21 21 20 19 20 21 22 23 24 26 27 27 28 28 27 25 19 13 10 7 6 7 8 8 8 10 10 7 5 5 5 5 7 9 8 8 9 9 9 10 8 6 11 16 12 9 7 8
6 7 7 8 9 9 10 10 11 12 13 13 14 14 15 15 15 16 16 17 17 16 17 19 22 22 20 23 29 30 29 29 29 28 27 25 22 21 21 20 19 20 20 21 21 21 24 26 26 26 26 27 28 26 24 20 15 13 14 13 12 10 7 8 11 12 11 11 13 14 15 16 17 16 14 10 10 9 7 10 14 11 8 6 6
7 7 7 8 8 9 9 10 11 12 12 12 13 14 15 15 15 16 16 17 17 17 17 18 20 21 20 23 29 29 28 29 30 28 26 24 22 21 21 20 19 19 19 20 20 20 21 24 25 25 24 24 26 27 29 28 24 23 23 21 18 17 16 16 17 18 18 19 20 18 17 20 21 20 19 17 14 11 9 9 11 12 11 11 8
7 7 7 7 8 8 9 9 10 11 12 12 13 13 14 15 15 16 17 17 16 17 17 17 18 20 19 23 29 29 27 28 28 27 25 23 22 21 20 21 20 19 19 19 20 20 20 22 24 24 23 23 24 25 26 28 29 29 30 27 24 23 23 23 22 21 21 20 20 19 18 19 21 20 20 19 18 14 12 10 10 13 12 12 13
7 7 7 7 7 8 8 9 10 11 11 12 12 13 14 14 15 16 16 17 17 16 16 16 18 19 18 23 30 30 27 26 25 24 22 22 22 21 20 22 21 20 20 20 20 21 21 23 24 24 23 23 24 26 27 27 28 29 31 33 31 28 26 25 24 22 20 19 19 19 17 16 19 20 18 18 21 18 14 14 12 11 10 10 13
7 7 7 7 7 8 8 9 10 10 11 12 12 12 13 14 15 15 16 17 17 16 16 17 18 18 18 23 30 30 26 24 22 22 22 21 21 21 20 22 24 23 21 20 20 20 20 22 24 25 25 25 24 25 27 27 27 27 29 32 32 31 28 25 23 22 20 19 19 19 17 16 18 20 19 20 23 20 14 16 15 11 10 8 8
8 7 7 7 7 7 8 9 10 10 11 11 12 12 12 13 14 15 15 16 16 17 17 16 18 18 18 23 30 30 26 22 20 21 21 21 21 21 19 21 26 28 26 22 21 20 20 21 23 24 25 25 24 23 24 25 26 27 28 29 29 29 27 25 22 21 20 19 19 21 19 17 18 21 20 19 20 19 14 15 16 13 13 11 9
8 8 7 7 7 7 8 9 9 10 10 11 11 12 13 13 13 14 14 15 16 17 18 17 18 19 18 22 29 31 26 21 19 19 20 20 21 21 19 19 23 29 32 29 24 22 22 21 23 25 24 24 23 22 21 20 21 23 26 27 27 26 25 23 22 20 20 19 19 20 20 19 19 21 21 18 18 20 18 13 11 12 10 9 11
9 8 8 7 7 7 7 8 9 9 10 11 11 12 13 13 13 13 13 14 15 16 18 18 18 18 17 18 26 32 29 22 17 17 19 20 20 20 19 19 19 23 30 33 30 26 24 24 24 24 24 23 22 21 20 18 17 17 20 22 23 24 23 22 20 19 19 18 18 20 23 24 23 24 24 21 19 21 21 17 9 8 8 8 13
9 8 8 7 7 7 7 8 8 9 9 11 11 12 12 13 13 13 13 14 15 15 16 18 19 19 17 16 22 32 32 24 18 16 17 19 20 19 19 20 20 19 23 30 33 31 27 26 26 26 25 23 20 18 17 18 16 15 15 17 19 21 21 22 22 19 16 14 16 21 27 27 26 27 26 21 19 19 20 22 16 4 7 7 14
10 9 8 7 7 7 7 7 8 8 9 10 11 11 12 12 12 12 13 13 14 14 15 16 18 20 20 17 19 28 34 28 21 17 15 18 20 19 18 19 20 20 20 24 29 32 31 29 28 28 27 24 20 17 15 16 17 17 17 17 17 19 20 21 23 21 17 13 12 17 24 26 24 27 28 23 20 18 19 27 26 9 6 7 14
10 9 8 8 7 7 7 7 7 8 9 10 10 10 11 11 11 11 12 13 13 14 14 14 16 20 23 22 18 23 32 32 26 20 16 17 20 19 18 18 19 20 20 20 23 28 31 31 29 28 28 26 22 19 16 16 18 19 18 17 18 20 21 21 23 23 22 17 13 14 21 23 21 25 29 29 26 23 22 27 28 18 8 8 11
11 10 9 8 8 7 7 7 7 8 9 9 10 10 10 10 10 10 11 12 13 13 13 13 14 16 21 24 20 20 27 32 31 25 20 20 21 21 19 19 19 19 19 20 20 22 26 30 31 30 29 27 25 21 19 19 21 21 20 19 20 21 21 22 22 21 22 21 19 19 21 21 19 22 27 30 29 29 28 23 21 20 17 13 10
12 11 10 9 9 8 8 8 8 8 8 9 9 10 10 11 11 11 11 11 12 12 12 13 14 14 15 20 23 22 24 29 32 29 25 23 24 24 23 21 20 19 19 19 19 20 23 27 30 31 30 28 26 24 22 22 23 23 22 21 22 21 20 21 21 20 21 22 22 23 22 21 20 21 23 27 28 29 29 24 19 18 19 17 16
13 12 11 10 10 9 9 8 8 8 8 8 9 9 10 11 11 12 12 12 11 12 12 12 13 14 13 16 21 23 24 26 29 30 28 26 25 25 26 24 21 19 19 18 19 20 22 24 27 30 31 31 29 27 25 24 23 23 23 23 22 20 19 20 21 20 21 22 23 23 22 21 23 23 22 24 26 24 26 26 22 19 18 18 19
14 13 12 11 11 10 9 8 8 8 8 8 9 9 9 10 11 11 12 12 12 12 12 12 12 14 15 14 17 20 22 23 25 27 28 27 26 26 26 25 21 18 18 19 19 20 22 23 24 26 29 31 31 29 27 26 24 23 23 23 20 18 18 19 20 20 20 21 22 23 22 21 24 25 23 23 24 21 19 23 24 20 17 18 18
15 14 13 12 12 11 9 8 8 8 8 8 8 8 8 8 9 9 10 11 11 11 11 12 12 13 15 15 15 17 20 21 21 24 25 25 25 26 25 23 21 19 19 20 21 21 21 22 23 23 24 27 30 29 28 27 25 24 24 24 22 20 20 20 20 20 21 21 21 22 23 22 24 26 24 22 23 20 15 17 23 22 19 20 20
15 14 14 13 12 11 9 8 8 8 8 8 8 8 8 8 8 8 8 9 10 11 11 11 12 13 14 16 16 16 18 18 18 19 22 22 22 23 24 22 20 19 19 19 21 21 21 22 23 23 22 23 26 28 28 28 27 26 25 24 24 24 23 23 22 21 21 22 22 22 23 23 23 25 25 22 23 23 15 12 18 23 21 21 23
16 15 15 14 12 11 9 9 8 8 8 8 8 7 7 7 8 8 8 8 9 10 10 11 12 13 14 15 16 16 17 18 17 16 17 19 20 20 21 22 21 19 18 17 19 21 22 21 21 22 22 21 23 26 28 29 28 27 26 26 26 26 26 25 24 23 22 23 23 22 22 23 23 25 25 21 22 25 18 10 12 17 18 18 20
17 16 15 14 12 11 10 9 8 8 7 7 7 7 7 7 8 8 8 9 9 9 9 10 11 13 13 14 16 16 17 19 19 17 15 16 18 18 19 20 20 20 18 17 17 19 21 20 20 20 22 22 22 25 28 29 28 28 28 28 28 27 26 25 24 24 24 23 22 21 22 23 23 23 24 22 22 25 23 16 10 9 11 13 14
18 16 15 14 13 12 11 10 8 8 7 7 7 7 7 7 9 10 10 10 10 9 9 10 11 12 13 13 14 16 18 20 21 20 19 18 19 19 19 20 20 19 19 17 17 18 19 19 19 20 21 22 23 25 26 27 29 29 28 28 29 28 27 25 24 23 23 22 22 21 21 22 23 24 26 26 25 26 27 24 17 11 10 10 9
18 17 16 15 13 12 11 11 9 8 8 9 10 10 8 6 7 10 11 10 10 10 10 11 11 11 12 12 12 13 17 20 22 22 22 22 22 21 21 21 21 21 20 18 18 18 18 18 19 20 21 22 23 25 25 27 29 30 29 28 28 28 27 26 25 24 22 21 22 22 21 22 24 26 27 27 27 27 27 27 24 19 18 15 10
18 17 16 15 14 13 12 11 10 9 10 11 12 13 12 9 9 11 11 11 11 10 11 12 12 10 10 11 10 11 15 19 20 21 22 22 22 22 22 22 22 22 21 18 17 17 17 19 20 22 23 24 25 26 27 27 28 29 29 28 28 28 27 26 27 27 24 22 22 23 24 23 24 26 27 26 27 28 28 28 28 24 22 21 15
19 18 17 15 14 14 13 11 10 11 12 12 12 12 12 11 12 12 11 10 9 8 10 13 13 11 11 11 10 11 14 16 18 18 19 19 20 20 21 21 21 20 19 17 16 17 19 21 22 23 25 25 25 26 26 26 26 26 27 28 28 29 29 27 27 28 27 24 23 24 24 24 24 25 26 26 27 28 28 29 30 27 24 23 21
19 18 17 16 15 15 13 11 11 12 12 13 13 13 12 12 12 12 11 9 8 8 10 13 13 13 14 14 13 12 14 15 16 17 18 18 18 19 19 19 19 19 18 17 17 18 19 21 21 22 24 24 25 25 25 25 25 25 25 27 27 28 29 28 26 26 26 26 26 25 23 23 23 25 26 25 25 27 27 27 28 27 25 23 22
20 18 17 16 17 15 13 13 13 13 13 13 14 15 15 14 13 12 12 10 10 10 10 11 12 13 14 13 12 12 12 14 15 17 18 19 19 20 20 19 19 18 18 18 19 19 19 19 20 21 22 23 23 24 23 23 24 24 24 25 26 27 28 28 27 26 25 26 27 27 25 23 22 23 24 25 25 25 26 27 27 27 25 23 23
20 19 17 18 18 16 14 15 15 14 14 14 14 15 15 15 13 12 11 10 10 10 10 11 11 12 12 11 10 9 10 11 13 15 16 17 18 19 20 21 20 19 18 18 20 20 19 19 19 20 21 21 22 22 23 23 23 23 23 24 25 26 27 27 26 25 25 25 26 27 27 27 26 23 22 24 25 25 26 27 27 26 24 24 26
21 19 19 21 19 16 16 17 16 15 15 15 14 14 13 13 13 13 11 10 10 9 9 10 11 11 11 10 9 8 8 10 12 13 13 14 14 15 17 19 20 20 19 19 20 19 19 19 19 19 20 20 20 21 22 22 22 22 23 24 24 24 25 25 25 25 25 25 26 26 26 28 29 26 24 24 25 25 25 26 26 26 26 25 26
20 20 21 22 20 17 18 18 17 17 17 16 15 14 13 13 14 15 13 11 9 8 8 9 9 10 11 10 9 9 9 10 11 12 12 13 13 13 15 17 18 18 19 19 19 18 18 19 19 19 19 19 20 20 21 22 22 22 22 23 23 23 24 25 26 25 25 25 26 26 25 26 28 27 25 24 24 24 24 26 26 26 26 25 23
20 21 23 23 20 18 18 18 18 18 18 17 16 15 14 15 15 14 12 10 9 8 7 7 8 9 10 12 13 13 13 13 13 13 14 14 14 13 14 15 16 16 17 18 18 18 18 18 18 19 19 19 19 20 20 21 21 21 21 22 23 23 24 25 26 25 24 24 25 26 25 25 26 27 25 24 24 24 23 24 25 25 25 25 24
21 23 26 24 20 18 19 18 18 19 18 17 16 16 16 16 15 13 11 11 10 9 8 7 7 9 11 13 15 16 15 15 15 15 15 15 15 15 14 14 15 15 16 16 17 17 18 18 18 18 18 18 18 19 19 20 20 21 20 21 23 24 24 24 25 24 24 24 25 26 26 25 25 26 25 23 23 23 23 22 22 23 25 25 23
22 24 26 24 20 19 19 18 18 19 19 18 17 17 18 16 15 13 12 11 11 11 10 9 9 10 11 12 12 12 12 12 12 12 13 14 14 14 14 13 14 14 15 15 16 16 16 17 17 17 18 18 18 18 19 19 19 20 20 20 22 23 23 23 24 24 24 24 25 25 26 25 24 25 25 24 23 23 23 23 22 22 23 24 23
22 23 25 23 20 19 19 18 18 19 19 17 17 18 18 16 15 14 13 13 13 12 11 11 10 9 9 10 9 8 8 7 7 9 11 12 12 12 12 13 13 13 14 14 14 15 15 16 16 17 17 18 18 18 19 19 19 19 19 19 20 21 22 22 23 24 24 24 25 25 26 25 25 25 25 24 23 23 23 23 23 22 22 24 25
22 24 26 24 21 20 19 19 19 21 19 17 16 18 18 17 16 14 14 14 14 12 12 12 11 10 9 8 5 2 3 3 5 7 8 10 10 11 11 12 13 13 13 13 13 14 15 15 15 16 17 17 18 18 18 18 18 18 19 19 19 20 21 22 23 23 24 24 25 25 26 25 25 26 26 25 23 24 23 23 23 23 22 23 25
22 25 28 26 23 21 19 19 20 21 19 17 16 17 17 17 15 14 14 15 14 13 13 12 11 12 12 9 5 2 1 3 7 8 8 8 9 10 10 11 12 12 12 12 13 13 14 14 14 15 16 16 16 17 17 17 17 17 18 18 18 19 20 21 22 22 22 23 24 25 26 25 25 26 27 25 23 23 23 23 23 23 21 22 25
22 26 31 29 24 21 20 19 20 20 19 17 16 17 17 16 14 14 14 14 14 14 13 11 12 14 13 9 7 4 4 6 9 8 8 8 9 9 10 10 11 11 11 11 12 12 12 13 13 14 15 15 15 15 16 16 16 16 17 17 18 18 18 19 21 21 21 21 23 25 25 25 24 25 26 25 23 23 23 22 23 23 21 22 25
22 27 33 31 25 21 20 19 20 20 19 17 16 16 16 16 15 14 14 14 13 13 12 11 13 15 12 9 8 7 7 8 9 9 9 9 9 9 9 9 10 10 10 10 10 10 11 12 12 13 14 15 15 15 15 16 15 15 15 16 17 17 17 18 19 20 20 20 22 24 24 24 24 24 25 24 23 23 23 22 23 24 22 21 24
23 27 32 31 26 21 19 19 20 20 19 18 16 16 16 15 14 12 12 12 13 13 12 13 15 14 11 10 11 10 8 7 9 9 9 9 9 9 9 9 9 9 9 9 10 10 10 11 12 12 13 13 14 14 15 15 14 14 14 15 16 17 17 17 19 20 19 19 20 23 23 23 23 24 24 24 23 22 22 22 23 24 23 21 21
22 27 30 29 25 21 18 18 19 19 19 18 16 16 17 15 13 13 13 13 14 15 13 14 15 14 13 14 14 11 8 7 9 9 9 9 9 9 8 8 8 8 8 9 9 9 9 10 10 10 11 11 12 13 13 13 14 14 14 14 15 16 17 16 18 19 18 18 20 22 22 22 22 23 23 23 22 22 22 22 22 23 24 22 21
22 26 28 26 24 21 18 18 19 19 19 19 17 16 18 18 16 16 16 16 16 16 14 15 16 15 15 17 17 11 8 8 10 10 10 9 10 9 8 8 9 9 8 8 8 8 8 8 8 9 10 10 10 11 11 11 12 13 14 14 15 16 16 15 15 17 18 19 20 21 21 20 21 21 22 22 21 21 21 22 22 22 23 23 22
22 25 26 24 23 22 19 18 20 19 20 20 19 19 22 21 18 17 18 18 17 16 15 16 17 15 16 19 17 11 8 10 10 10 10 11 11 11 10 9 9 9 8 8 8 8 8 8 7 8 9 8 9 9 8 8 10 12 13 13 14 15 15 14 14 16 17 18 20 21 20 18 19 20 20 20 20 20 21 21 21 21 22 23 22
21 24 25 23 23 23 20 19 20 21 22 24 23 22 23 22 17 17 19 20 18 17 16 16 17 16 17 19 17 12 10 11 11 11 11 11 11 11 11 11 10 10 9 8 7 7 8 7 7 7 7 7 8 8 7 7 8 10 11 12 13 14 14 14 14 16 16 18 19 20 18 17 17 18 19 19 19 20 21 21 21 21 21 22 22
19 22 23 22 24 25 23 21 22 24 26 27 24 22 23 22 19 18 20 20 19 18 17 17 17 17 17 17 16 14 12 13 13 12 12 12 12 12 12 11 11 10 10 8 7 6 7 7 7 6 6 6 7 5 5 6 8 9 10 11 12 13 14 13 13 15 16 17 19 18 16 15 16 17 17 18 19 20 21 21 21 20 20 21 22
20 19 20 23 27 28 25 23 25 26 27 27 24 21 23 24 20 18 20 20 19 19 18 17 17 17 17 17 16 15 15 15 14 13 13 13 12 12 12 12 12 11 9 8 6 5 6 7 7 6 6 5 4 3 4 6 7 8 9 10 11 12 13 12 13 14 15 16 18 18 16 15 16 17 17 17 18 19 21 20 20 20 20 21 22
20 18 20 25 29 27 24 24 26 25 26 27 24 20 22 23 21 18 19 20 19 19 18 17 17 18 18 18 18 17 17 17 16 15 15 14 14 14 14 13 12 11 10 8 7 6 5 5 6 6 5 4 2 3 4 5 6 7 9 9 10 10 11 11 12 14 15 16 17 17 15 14 15 17 19 19 17 18 20 20 19 19 20 21 21
17 19 23 28 29 27 25 26 26 24 25 28 25 20 20 22 21 18 18 19 20 20 19 17 17 18 19 19 20 19 19 18 18 17 16 15 15 15 15 14 13 12 11 9 8 8 7 5 4 5 5 3 2 3 4 4 4 6 8 8 8 9 10 10 12 14 15 16 16 15 14 13 13 15 19 20 18 17 18 19 18 18 20 21 21
Wind_Direction
58 54 48 43 37 33 31 31 34 33 30 31 31 30 28 26 26 26 27 27 19 19 26 23 22 28 25 19 19 19 18 20 21 19 21 27 27 24 21 20 23 29 33 36 39 43 48 50 51 54 62 72 80 89 95 100 104 110 115 118 119 112 101 96 102 121 215 192 200 188 159 155 137 108 67 89 130 138 105 83 70 61 62 62 61
63 58 51 46 41 34 32 32 34 35 33 32 31 30 30 28 28 29 28 25 21 24 29 25 26 30 27 21 21 22 24 25 24 22 20 22 28 29 27 25 26 29 33 34 36 40 43 44 46 51 59 65 73 83 93 104 114 121 124 123 118 109 96 90 98 99 49 100 167 173 175 163 128 115 95 91 116 121 108 107 103 102 99 70 62
70 63 55 50 44 37 35 34 35 37 35 34 32 30 31 30 30 32 29 25 26 30 31 28 29 30 26 22 22 26 31 30 26 23 21 21 27 31 31 30 30 31 32 31 33 37 40 41 42 46 53 59 64 70 79 93 108 117 123 123 120 107 64 334 294 186 167 222 185 147 189 180 126 104 107 100 102 105 111 130 121 123 136 82 61
73 67 60 54 47 41 38 35 36 38 36 35 34 32 33 34 35 34 30 26 29 32 34 34 34 31 26 23 23 27 33 33 29 27 25 24 28 32 32 32 32 34 35 33 33 37 39 40 41 44 48 52 58 67 74 82 97 109 114 122 134 312 319 306 291 279 272 230 207 88 132 150 117 100 113 107 101 102 106 104 80 101 128 87 59
71 68 63 58 49 43 40 37 37 38 36 36 36 34 36 38 37 35 32 31 33 33 36 39 37 33 28 25 25 29 32 32 31 30 29 29 31 32 31 31 31 34 38 36 35 39 41 40 40 43 45 44 44 52 61 68 82 90 47 354 334 318 313 311 303 306 24 48 47 47 78 112 113 101 112 112 102 99 99 80 67 88 115 86 61
73 68 63 59 52 46 42 39 37 37 37 38 37 37 38 39 40 37 34 35 35 32 37 43 41 36 31 27 27 30 33 33 33 33 32 33 37 34 31 32 33 34 38 39 38 40 42 41 42 44 44 42 40 36 32 32 36 25 3 354 349 328 313 321 339 11 43 43 26 33 50 58 54 59 81 105 100 96 109 89 74 83 107 92 80
81 71 65 61 54 49 45 41 39 39 39 40 40 40 41 42 42 40 37 38 35 31 36 44 43 38 33 28 28 31 33 33 34 35 34 36 39 37 32 32 35 35 38 40 41 41 42 42 43 44 45 45 44 41 37 38 42 34 26 27 28 21 16 32 45 48 44 33 25 30 41 43 40 45 54 66 71 70 86 93 88 88 85 86 117
89 77 69 63 57 52 48 43 42 41 41 43 44 43 43 44 43 42 41 39 36 32 33 40 44 41 35 28 28 32 34 33 33 34 34 37 41 37 30 31 34 35 37 38 39 40 41 41 43 45 49 51 50 46 41 42 46 44 40 43 41 35 37 41 45 45 40 32 25 24 34 39 35 32 32 29 25 31 51 84 110 105 78 70 92
97 87 75 66 60 56 52 48 46 45 44 46 46 46 45 45 45 44 43 40 37 35 34 37 42 43 37 29 29 33 34 32 32 32 32 36 42 39 32 33 36 36 37 38 39 40 39 40 43 46 53 58 56 52 46 45 49 48 46 49 47 44 42 40 40 41 38 33 25 21 28 34 30 24 21 12 2 9 36 60 100 110 93 81 75
102 92 82 72 65 61 56 53 49 47 47 48 48 49 47 46 46 45 43 41 39 38 37 37 39 41 37 29 29 32 33 32 34 38 38 39 44 43 36 36 40 39 40 40 39 40 40 42 46 49 54 58 58 57 53 50 53 54 52 52 52 52 50 46 44 43 41 37 29 24 26 26 23 17 11 6 1 4 24 42 65 98 105 97 79
105 96 89 80 72 66 61 57 52 49 49 50 50 50 48 48 48 46 45 42 39 38 38 38 38 40 37 30 29 32 32 32 36 42 45 46 47 46 40 39 42 42 43 41 37 36 35 38 44 48 50 53 56 59 57 53 55 58 57 56 55 54 53 50 47 44 44 41 34 31 29 22 18 14 8 7 2 356 16 44 50 63 67 72 78
112 103 94 83 76 71 65 61 56 51 50 51 52 51 50 50 49 47 46 43 39 38 37 36 38 40 38 31 30 32 32 33 37 42 46 50 51 48 43 41 42 42 43 43 41 38 34 33 39 44 45 48 52 56 58 55 55 59 62 61 59 56 55 54 51 47 46 45 40 36 31 23 20 15 9 7 360 354 13 45 53 55 51 58 79
116 108 100 89 81 76 69 66 60 54 52 52 52 52 51 51 49 48 48 45 41 38 35 34 35 38 38 32 30 32 32 32 37 42 47 53 53 50 45 42 41 40 41 43 44 44 40 34 35 40 42 45 49 53 55 55 54 56 59 58 56 54 53 52 54 52 49 49 48 43 37 32 28 21 17 14 7 0 2 16 51 71 61 64 88
119 113 106 97 90 82 74 70 63 57 56 55 53 52 51 51 49 48 49 48 45 41 36 35 35 36 38 33 30 31 32 33 38 43 48 54 55 51 48 46 42 37 37 39 42 46 45 39 35 35 37 41 44 47 49 48 47 49 51 49 45 43 41 40 42 46 48 53 56 51 44 39 33 29 27 26 21 13 2 355 17 87 90 81 86
121 116 110 104 98 89 79 73 68 62 60 58 56 53 50 51 50 49 51 51 50 47 41 38 37 36 38 36 31 30 32 34 41 45 49 56 57 51 48 49 47 40 34 35 38 43 46 44 41 37 36 37 39 43 45 46 46 46 47 45 39 34 31 27 26 29 37 51 60 55 48 42 37 32 29 29 29 24 17 13 16 85 144 97 74
123 121 118 113 106 98 88 79 72 67 64 61 58 54 50 50 51 51 53 55 54 52 47 42 40 38 39 40 34 31 32 35 41 47 50 56 57 51 46 48 49 46 39 32 34 39 43 44 43 40 37 36 37 43 46 48 50 48 44 43 38 33 30 26 23 26 30 37 50 54 49 45 41 33 28 31 32 27 31 31 25 31 155 109 73
129 128 123 116 110 103 95 86 78 71 68 62 57 55 51 49 52 54 56 57 56 54 50 45 41 38 38 40 37 32 32 34 40 47 52 58 57 49 45 45 46 47 46 38 34 37 40 43 44 42 39 36 36 42 49 51 53 50 44 41 37 33 32 29 29 33 35 33 39 48 46 42 41 36 30 32 33 31 35 31 19 17 54 79 81
135 131 126 121 115 108 101 93 86 76 70 65 60 56 52 48 51 56 60 61 60 57 53 48 44 40 38 39 39 36 33 34 39 45 52 60 58 49 45 46 43 42 45 42 38 36 38 42 45 45 42 39 37 41 49 53 52 47 41 38 33 29 28 24 23 31 37 37 40 46 41 34 35 38 33 30 32 35 38 34 21 24 38 43 55
137 133 128 123 115 108 102 95 89 81 73 68 63 58 55 52 51 54 59 61 60 58 55 51 47 43 38 36 37 39 36 35 39 43 48 56 58 51 47 46 43 39 38 38 37 35 34 38 43 46 46 43 41 41 44 49 48 43 40 37 29 23 23 19 18 29 38 38 39 42 40 32 31 39 39 30 29 33 36 39 41 39 39 38 40
135 131 126 121 115 109 105 98 92 88 80 73 69 63 60 59 57 57 58 60 60 58 56 54 50 47 41 33 33 35 36 38 40 42 45 50 54 52 48 45 41 37 36 36 33 32 31 32 37 43 46 45 44 43 44 46 46 42 41 36 26 20 21 22 23 33 40 38 37 38 38 31 27 33 40 35 31 30 32 38 47 52 49 47 43
133 130 127 123 119 113 109 104 97 92 86 80 76 70 66 64 63 62 61 61 62 60 57 56 53 49 46 39 33 30 30 36 42 43 43 45 50 51 48 46 44 39 37 37 34 30 29 28 31 38 43 43 43 43 43 45 47 45 42 39 33 29 30 30 31 35 38 38 37 38 36 30 24 24 29 32 31 29 30 36 46 55 56 55 50
135 133 130 126 122 118 116 113 105 98 92 87 81 75 71 68 65 66 67 66 64 62 60 58 56 53 49 45 41 32 23 27 40 45 42 42 47 49 48 47 48 45 40 38 36 32 28 28 30 36 40 41 41 41 41 43 45 47 45 42 41 38 38 39 37 36 37 36 35 36 34 29 23 18 19 23 25 27 32 41 50 60 67 65 62
138 135 131 127 124 123 122 118 110 104 97 92 87 81 74 69 64 63 66 68 66 64 61 59 58 57 51 44 43 37 25 22 34 45 43 40 44 49 49 47 47 48 44 39 34 31 29 29 32 36 38 40 40 40 41 41 41 43 45 44 41 38 39 41 38 35 35 34 32 31 29 27 22 15 14 19 21 25 37 55 58 67 77 72 65
138 134 132 131 130 129 126 120 116 112 105 97 91 85 80 75 69 64 62 63 67 67 63 60 58 57 54 46 41 36 30 28 34 43 47 44 42 46 49 47 43 41 38 36 33 30 29 29 31 35 38 40 40 40 41 41 39 39 42 44 42 39 37 38 36 34 33 31 28 25 24 24 20 13 14 19 24 30 42 55 57 65 74 69 60
138 136 137 136 135 134 129 126 122 117 111 103 93 87 84 77 69 66 62 57 59 63 64 64 62 58 56 52 43 36 36 39 41 43 49 50 46 44 47 47 43 36 30 32 35 33 30 30 32 37 40 41 41 41 40 40 39 39 40 41 41 38 34 32 33 35 32 28 24 22 21 21 18 18 23 27 27 30 32 28 26 46 64 68 63
141 142 141 140 141 138 133 130 128 120 112 104 93 83 78 73 68 66 62 54 53 53 53 59 64 63 61 57 48 38 39 46 47 46 51 55 51 46 46 47 46 40 33 36 40 35 31 31 33 36 40 41 41 42 41 40 39 39 39 38 36 35 31 29 30 32 30 27 23 20 19 19 19 24 32 31 26 24 22 19 20 33 55 77 82
146 146 144 144 145 142 139 137 130 119 108 102 94 80 69 71 83 79 70 60 55 52 49 48 51 58 62 60 51 41 40 46 49 49 50 53 52 48 45 44 43 39 34 38 43 37 33 34 35 37 40 41 41 41 41 40 39 37 36 35 34 33 31 30 31 31 29 30 28 23 21 23 23 26 30 28 22 19 19 18 20 31 50 69 86
150 148 148 150 148 146 148 144 128 114 110 108 102 89 78 81 92 89 79 68 62 61 63 57 49 52 63 62 53 46 45 48 50 49 48 47 47 46 44 41 39 35 33 40 45 40 37 38 36 36 38 39 38 38 37 37 38 36 35 33 32 31 31 32 31 29 27 28 29 26 24 26 25 23 25 26 22 18 19 20 20 26 41 51 55
153 151 153 154 150 150 154 146 128 123 124 117 106 97 91 93 98 95 85 75 71 79 87 80 70 72 79 76 68 62 58 56 56 56 54 50 48 46 44 41 39 38 39 45 48 44 41 40 36 35 36 36 35 34 33 33 34 34 33 32 30 30 30 29 27 24 23 25 28 26 26 29 27 23 24 25 23 19 20 22 23 25 31 33 31
155 156 158 156 153 156 158 145 129 130 134 126 113 105 99 100 104 101 92 83 81 91 100 97 93 93 88 80 74 72 72 70 68 67 65 62 58 54 51 48 47 46 45 49 51 48 44 41 39 38 37 36 34 32 30 30 30 30 30 30 29 28 28 27 26 23 24 27 27 24 24 28 28 26 26 25 22 22 22 23 24 26 26 22 18
158 161 162 159 158 161 159 146 134 132 135 132 124 116 109 104 103 102 100 98 96 96 99 102 103 99 91 81 75 75 78 78 74 70 67 63 60 57 54 53 52 50 48 49 51 50 46 43 41 40 39 38 36 33 30 29 29 29 28 28 28 27 25 24 25 24 24 25 25 22 23 27 26 25 29 28 23 22 23 24 25 24 21 20 16
162 165 163 160 163 164 156 148 142 138 137 135 131 127 121 114 110 108 108 109 108 105 105 105 102 97 91 86 82 82 84 83 77 71 65 60 57 55 52 51 51 51 50 50 50 48 45 44 42 41 40 40 38 35 33 31 30 29 28 27 26 25 23 22 24 27 26 25 24 23 24 24 22 22 30 32 26 22 22 23 23 20 17 19 19
166 166 161 161 166 166 156 151 150 147 145 144 143 140 135 130 126 124 120 115 111 109 108 106 102 97 92 88 85 85 88 86 77 69 60 52 49 51 51 50 49 48 47 48 48 46 43 43 42 41 40 39 38 37 36 33 31 31 30 29 27 25 23 23 25 28 28 27 26 25 23 23 23 24 30 31 27 24 24 22 20 19 17 17 17
168 167 163 162 167 167 160 158 159 157 155 155 154 152 151 148 144 138 132 126 119 112 107 103 101 99 94 88 83 83 88 88 78 65 55 47 46 51 54 52 49 48 46 47 47 45 42 42 40 39 39 38 36 36 36 34 33 33 31 30 29 27 26 26 26 28 28 27 27 26 24 24 26 25 25 26 26 25 26 24 21 18 16 14 13
171 169 165 164 169 170 166 166 166 163 162 163 162 160 158 157 154 148 144 142 136 126 117 109 105 103 96 90 87 86 86 85 77 66 59 54 54 57 57 53 50 47 46 47 47 45 43 43 40 38 37 37 36 36 35 34 34 34 32 29 28 28 28 28 27 27 27 27 26 25 25 26 27 25 23 24 25 25 25 24 22 20 17 15 13
170 167 165 168 172 173 172 173 171 168 167 168 167 164 162 161 160 158 157 155 147 139 136 133 123 114 106 100 95 90 85 80 74 68 63 59 57 57 57 55 52 49 46 46 47 46 44 43 41 39 38 37 36 35 35 34 33 34 34 32 29 29 30 30 29 28 28 28 27 26 25 26 25 23 22 23 26 26 23 21 21 21 21 20 17
169 165 167 172 176 176 175 176 175 172 171 171 168 164 163 166 167 166 165 160 152 146 148 150 140 127 120 115 106 96 87 79 71 64 60 58 57 57 56 57 57 54 50 48 47 47 45 43 42 40 38 37 36 35 34 34 32 33 35 35 32 30 32 35 35 32 30 29 27 26 25 25 23 21 19 20 25 27 23 20 20 21 21 22 20
172 170 171 174 178 177 175 178 178 173 171 174 170 163 163 170 175 176 170 162 156 153 156 158 155 147 143 136 119 98 82 72 62 57 55 56 58 59 59 59 60 58 55 52 50 50 48 45 43 42 40 37 36 35 34 34 32 31 33 35 34 31 32 37 39 37 33 31 29 27 26 25 23 21 20 20 22 25 23 21 20 20 20 22 20
178 176 173 174 178 178 176 178 176 171 172 177 173 166 167 175 182 181 171 163 161 162 164 169 174 178 176 165 142 80 33 49 68 68 63 61 61 62 63 63 61 60 58 55 53 52 50 47 45 45 43 40 38 37 37 36 33 32 32 34 35 33 32 35 39 38 35 33 30 27 27 26 23 22 23 22 22 24 24 23 22 20 21 23 21
178 176 174 175 179 179 178 177 173 170 175 181 176 171 174 181 185 182 172 167 169 171 173 180 188 188 184 182 187 238 299 96 98 87 76 72 69 66 67 67 64 62 60 57 56 55 52 49 48 46 45 44 41 40 41 40 37 34 32 33 35 34 32 35 39 40 38 35 30 27 28 27 23 23 24 24 23 25 25 24 23 22 23 25 22
176 176 176 177 179 180 179 176 172 172 178 181 178 177 179 181 185 183 175 172 177 178 179 185 186 180 179 183 183 166 114 105 109 102 90 87 81 73 73 73 70 68 65 60 58 60 58 55 53 51 49 49 47 45 45 44 42 39 35 34 36 36 33 36 40 40 38 37 32 28 28 27 24 24 25 24 23 25 26 26 25 23 23 25 23
177 176 176 177 179 181 179 175 171 174 179 182 181 181 180 180 186 188 181 177 180 180 177 172 168 169 175 182 171 146 114 108 120 119 107 102 96 85 80 79 73 72 72 67 64 66 66 62 58 55 53 51 49 48 48 46 44 43 40 37 39 38 36 38 42 40 39 39 36 30 29 27 24 25 28 26 24 25 26 26 26 25 24 24 23
177 176 177 178 180 181 180 176 172 175 181 185 184 180 177 179 186 190 184 181 182 180 171 163 163 169 176 174 160 141 121 122 131 125 114 112 109 99 92 88 80 76 76 74 70 69 70 67 62 58 55 50 45 46 49 48 47 48 47 44 43 42 40 43 47 43 39 41 40 35 30 25 24 26 29 27 24 26 27 25 26 27 25 24 23
174 173 174 177 180 182 181 177 175 176 180 183 180 174 173 179 188 189 186 183 184 182 174 169 173 178 177 171 163 148 135 143 144 133 125 122 118 113 109 104 95 86 79 76 72 68 68 68 65 62 61 55 47 42 43 43 45 48 49 48 48 46 43 46 52 49 44 43 43 38 31 26 23 26 29 27 25 27 27 25 27 28 26 25 25
168 168 171 174 179 182 182 178 176 176 177 177 174 170 174 183 190 190 185 182 182 182 179 176 180 182 178 172 168 158 150 155 148 137 135 134 127 124 121 112 104 96 86 80 79 75 72 73 71 66 64 64 60 52 42 35 38 44 46 46 47 46 42 45 55 57 51 48 46 41 33 26 23 26 29 28 27 28 27 25 27 29 27 25 25
165 166 170 174 178 181 181 178 175 172 171 173 175 178 181 185 190 189 184 180 179 179 178 176 178 181 179 175 172 166 163 162 153 146 148 146 137 134 130 121 115 109 96 85 80 77 75 75 76 72 68 67 68 67 56 37 35 42 45 45 47 47 44 45 56 61 57 52 49 43 34 26 24 28 32 31 30 30 29 26 27 30 29 26 26
166 166 171 175 177 178 180 177 173 171 174 178 182 184 184 185 188 188 186 184 184 183 177 174 177 181 179 176 175 173 169 165 159 155 155 151 145 144 140 132 126 121 112 105 99 91 84 79 74 73 74 71 70 71 65 47 41 45 48 47 48 49 47 49 58 62 60 56 53 47 37 27 25 30 35 36 33 30 28 27 28 31 30 28 27
169 168 172 176 175 175 177 177 174 176 182 184 184 185 187 188 190 189 185 185 189 188 178 170 174 178 176 176 178 176 170 167 164 159 156 155 154 153 146 139 136 135 134 134 133 125 117 108 93 81 76 72 68 65 57 50 50 52 52 50 50 50 49 52 60 64 62 59 56 51 41 32 28 32 39 41 36 29 27 27 30 32 31 30 28
173 170 172 175 174 174 179 182 179 180 185 185 183 185 189 190 191 190 187 187 191 190 180 172 173 175 175 176 178 175 170 169 167 163 164 166 165 157 150 149 150 150 148 147 143 136 136 132 120 107 97 88 77 59 46 51 58 60 57 53 52 52 52 55 61 64 63 61 58 52 44 35 31 35 43 45 38 31 29 30 31 32 33 32 30
179 177 174 173 173 176 182 184 182 183 188 188 186 187 191 192 191 191 190 190 189 187 183 179 178 179 178 177 176 174 172 170 168 167 170 172 168 161 159 159 158 154 150 149 141 131 128 129 125 124 126 123 99 68 58 59 63 67 64 59 55 55 56 60 63 63 61 59 56 51 44 38 35 37 43 45 42 34 32 33 33 34 35 34 33
187 185 176 171 173 179 183 182 181 184 188 190 192 193 193 192 192 194 194 190 186 185 186 186 184 183 181 178 176 175 173 172 171 172 172 170 168 166 163 160 157 155 156 157 152 145 142 140 135 137 143 143 107 83 80 75 71 71 69 64 60 61 63 65 67 64 60 56 53 49 44 41 40 41 41 42 42 40 36 34 35 37 37 35 34